Time,TemperatureF,DewpointF,PressureIn,WindDirection,WindDirectionDegrees,WindSpeedMPH,WindSpeedGustMPH,Humidity,HourlyPrecipIn,Conditions,Clouds,dailyrainin,SoftwareType,DateUTC
2013-02-15 00:11:00,38.7,30.0,30.11,SW,217,1.0,1.0,70,0.00,,,0.00,weatherlink.com 1.10,2013-02-15 05:11:00,
2013-02-15 00:26:00,38.7,29.0,30.11,SSW,208,0.0,1.0,69,0.00,,,0.00,weatherlink.com 1.10,2013-02-15 05:26:00,
2013-02-15 00:41:00,38.6,30.0,30.11,South,185,1.0,2.0,70,0.00,,,0.00,weatherlink.com 1.10,2013-02-15 05:41:00,
2013-02-15 00:56:00,38.4,30.0,30.11,South,184,0.0,1.0,71,0.00,,,0.00,weatherlink.com 1.10,2013-02-15 05:56:00,
2013-02-15 01:11:00,37.7,29.0,30.12,South,184,1.0,1.0,72,0.00,,,0.00,weatherlink.com 1.10,2013-02-15 06:11:00,
2013-02-15 01:26:00,37.2,29.0,30.12,South,184,0.0,1.0,73,0.00,,,0.00,weatherlink.com 1.10,2013-02-15 06:26:00,
2013-02-15 01:41:00,36.4,29.0,30.12,South,184,0.0,1.0,75,0.00,,,0.00,weatherlink.com 1.10,2013-02-15 06:41:00,
2013-02-15 01:56:00,36.3,29.0,30.12,South,185,0.0,1.0,75,0.00,,,0.00,weatherlink.com 1.10,2013-02-15 06:56:00,
2013-02-15 02:11:00,36.3,29.0,30.11,South,184,0.0,1.0,75,0.00,,,0.00,weatherlink.com 1.10,2013-02-15 07:11:00,
2013-02-15 02:26:00,35.0,29.0,30.11,South,186,0.0,0.0,78,0.00,,,0.00,weatherlink.com 1.10,2013-02-15 07:26:00,
2013-02-15 02:41:00,34.4,29.0,30.11,South,186,0.0,0.0,79,0.00,,,0.00,weatherlink.com 1.10,2013-02-15 07:41:00,
2013-02-15 02:56:00,34.4,29.0,30.11,SSW,198,0.0,2.0,79,0.00,,,0.00,weatherlink.com 1.10,2013-02-15 07:56:00,
2013-02-15 03:11:00,34.1,29.0,30.11,SSW,198,0.0,1.0,80,0.00,,,0.00,weatherlink.com 1.10,2013-02-15 08:11:00,
2013-02-15 03:26:00,34.1,29.0,30.11,SSW,198,0.0,0.0,80,0.00,,,0.00,weatherlink.com 1.10,2013-02-15 08:26:00,
2013-02-15 03:41:00,33.9,29.0,30.11,SSW,198,0.0,1.0,81,0.00,,,0.00,weatherlink.com 1.10,2013-02-15 08:41:00,
2013-02-15 03:56:00,33.7,28.0,30.11,SSW,193,0.0,1.0,81,0.00,,,0.00,weatherlink.com 1.10,2013-02-15 08:56:00,
2013-02-15 04:11:00,33.5,28.0,30.11,SSW,193,1.0,1.0,81,0.00,,,0.00,weatherlink.com 1.10,2013-02-15 09:11:00,
2013-02-15 04:26:00,33.4,29.0,30.11,SSW,193,1.0,1.0,82,0.00,,,0.00,weatherlink.com 1.10,2013-02-15 09:26:00,
2013-02-15 04:41:00,33.4,29.0,30.11,SSW,200,1.0,2.0,82,0.00,,,0.00,weatherlink.com 1.10,2013-02-15 09:41:00,
2013-02-15 04:56:00,33.7,28.0,30.11,South,190,0.0,1.0,81,0.00,,,0.00,weatherlink.com 1.10,2013-02-15 09:56:00,
2013-02-15 05:11:00,33.9,28.0,30.11,South,190,1.0,1.0,80,0.00,,,0.00,weatherlink.com 1.10,2013-02-15 10:11:00,
2013-02-15 05:26:00,33.0,28.0,30.11,SSE,162,0.0,1.0,83,0.00,,,0.00,weatherlink.com 1.10,2013-02-15 10:26:00,
2013-02-15 05:41:00,32.8,28.0,30.11,South,172,0.0,0.0,82,0.00,,,0.00,weatherlink.com 1.10,2013-02-15 10:41:00,
2013-02-15 05:56:00,32.3,28.0,30.11,South,171,0.0,1.0,84,0.00,,,0.00,weatherlink.com 1.10,2013-02-15 10:56:00,
2013-02-15 06:11:00,31.9,28.0,30.12,South,172,0.0,0.0,84,0.00,,,0.00,weatherlink.com 1.10,2013-02-15 11:11:00,
2013-02-15 06:26:00,31.1,27.0,30.12,South,172,0.0,1.0,86,0.00,,,0.00,weatherlink.com 1.10,2013-02-15 11:26:00,
2013-02-15 06:42:00,31.2,28.0,30.13,South,172,0.0,1.0,86,0.00,,,0.00,weatherlink.com 1.10,2013-02-15 11:42:00,
2013-02-15 06:56:00,30.9,27.2,30.14,South,172,0.0,1.0,86,0.00,,,0.00,Wunderground v.1.15,2013-02-15 11:56:00,
2013-02-15 07:02:00,31.2,27.5,30.14,South,172,0.0,0.0,86,0.00,,,0.00,Wunderground v.1.15,2013-02-15 12:02:00,
2013-02-15 07:07:00,31.4,27.7,30.14,South,172,0.0,0.0,86,0.00,,,0.00,Wunderground v.1.15,2013-02-15 12:07:00,
2013-02-15 07:13:00,31.4,27.4,30.14,South,172,0.0,1.0,85,0.00,,,0.00,Wunderground v.1.15,2013-02-15 12:13:00,
2013-02-15 07:19:00,31.4,27.7,30.14,South,177,0.0,1.0,86,0.00,,,0.00,Wunderground v.1.15,2013-02-15 12:19:00,
2013-02-15 07:24:00,31.5,27.8,30.14,South,178,0.0,0.0,86,0.00,,,0.00,Wunderground v.1.15,2013-02-15 12:24:00,
2013-02-15 07:29:00,31.5,27.8,30.14,South,177,0.0,0.0,86,0.00,,,0.00,Wunderground v.1.15,2013-02-15 12:29:00,
2013-02-15 07:35:00,31.4,27.7,30.15,South,177,0.0,0.0,86,0.00,,,0.00,Wunderground v.1.15,2013-02-15 12:35:00,
2013-02-15 07:40:00,31.0,27.3,30.15,South,177,0.0,0.0,86,0.00,,,0.00,Wunderground v.1.15,2013-02-15 12:40:00,
2013-02-15 07:46:00,30.7,27.6,30.15,South,177,0.0,1.0,88,0.00,,,0.00,Wunderground v.1.15,2013-02-15 12:46:00,
2013-02-15 07:51:00,30.9,27.5,30.15,South,177,0.0,1.0,87,0.00,,,0.00,Wunderground v.1.15,2013-02-15 12:51:00,
2013-02-15 07:57:00,31.2,27.8,30.15,South,177,0.0,1.0,87,0.00,,,0.00,Wunderground v.1.15,2013-02-15 12:57:00,
2013-02-15 08:02:00,31.1,27.7,30.15,South,177,0.0,0.0,87,0.00,,,0.00,Wunderground v.1.15,2013-02-15 13:02:00,
2013-02-15 08:08:00,30.6,27.2,30.16,South,177,0.0,0.0,87,0.00,,,0.00,Wunderground v.1.15,2013-02-15 13:08:00,
2013-02-15 08:13:00,30.3,27.2,30.16,South,177,0.0,0.0,88,0.00,,,0.00,Wunderground v.1.15,2013-02-15 13:13:00,
2013-02-15 08:28:00,30.0,27.0,30.16,South,177,0.0,0.0,89,0.00,,,0.00,weatherlink.com 1.10,2013-02-15 13:28:00,
2013-02-15 08:43:00,30.7,28.0,30.16,South,177,0.0,0.0,89,0.00,,,0.00,weatherlink.com 1.10,2013-02-15 13:43:00,
2013-02-15 08:58:00,31.4,28.0,30.16,South,177,0.0,0.0,88,0.00,,,0.00,weatherlink.com 1.10,2013-02-15 13:58:00,
2013-02-15 09:13:00,32.8,29.0,30.16,South,178,0.0,0.0,86,0.00,,,0.00,weatherlink.com 1.10,2013-02-15 14:13:00,
2013-02-15 09:28:00,33.3,29.0,30.16,East,91,0.0,0.0,85,0.00,,,0.00,weatherlink.com 1.10,2013-02-15 14:28:00,
2013-02-15 09:43:00,34.3,30.0,30.15,ENE,75,0.0,0.0,85,0.00,,,0.00,weatherlink.com 1.10,2013-02-15 14:43:00,
2013-02-15 09:58:00,35.2,31.0,30.15,ENE,61,0.0,0.0,84,0.00,,,0.00,weatherlink.com 1.10,2013-02-15 14:58:00,
2013-02-15 10:13:00,36.9,32.0,30.14,ENE,76,0.0,2.0,83,0.00,,,0.00,weatherlink.com 1.10,2013-02-15 15:13:00,
2013-02-15 10:28:00,39.1,34.0,30.14,South,181,0.0,2.0,81,0.00,,,0.00,weatherlink.com 1.10,2013-02-15 15:28:00,
2013-02-15 10:43:00,41.4,35.0,30.14,North,349,2.0,3.0,78,0.00,,,0.00,weatherlink.com 1.10,2013-02-15 15:43:00,
2013-02-15 10:58:00,43.3,35.0,30.13,NNW,343,2.0,2.0,73,0.00,,,0.00,weatherlink.com 1.10,2013-02-15 15:58:00,
2013-02-15 11:16:00,45.8,37.0,30.13,NW,320,1.0,4.0,72,0.00,,,0.00,weatherlink.com 1.10,2013-02-15 16:16:00,
2013-02-15 11:28:00,47.3,37.0,30.12,NE,36,1.0,3.0,68,0.00,,,0.00,weatherlink.com 1.10,2013-02-15 16:28:00,
2013-02-15 11:43:00,49.6,33.0,30.11,ESE,113,0.0,6.0,54,0.00,,,0.00,weatherlink.com 1.10,2013-02-15 16:43:00,
2013-02-15 11:58:00,51.4,32.0,30.11,WNW,294,1.0,5.0,48,0.00,,,0.00,weatherlink.com 1.10,2013-02-15 16:58:00,
2013-02-15 12:13:00,52.2,31.0,30.09,SE,142,1.0,7.0,45,0.00,,,0.00,weatherlink.com 1.10,2013-02-15 17:13:00,
2013-02-15 12:28:00,53.1,34.0,30.08,ESE,110,1.0,6.0,48,0.00,,,0.00,weatherlink.com 1.10,2013-02-15 17:28:00,
2013-02-15 12:43:00,53.3,30.0,30.07,East,91,2.0,8.0,41,0.00,,,0.00,weatherlink.com 1.10,2013-02-15 17:43:00,
2013-02-15 12:58:00,54.2,30.0,30.05,ESE,122,4.0,7.0,40,0.00,,,0.00,weatherlink.com 1.10,2013-02-15 17:58:00,
2013-02-15 13:13:00,54.4,30.0,30.05,ENE,60,2.0,3.0,40,0.00,,,0.00,weatherlink.com 1.10,2013-02-15 18:13:00,
2013-02-15 13:28:00,55.1,30.0,30.04,NE,49,2.0,4.0,39,0.00,,,0.00,weatherlink.com 1.10,2013-02-15 18:28:00,
2013-02-15 13:43:00,53.4,32.0,30.03,NNE,26,0.0,5.0,44,0.00,,,0.00,weatherlink.com 1.10,2013-02-15 18:43:00,
2013-02-15 13:59:00,52.4,30.0,30.03,NNW,347,0.0,3.0,43,0.00,,,0.00,weatherlink.com 1.10,2013-02-15 18:59:00,
2013-02-15 14:14:00,52.3,31.0,30.03,NNW,345,3.0,3.0,45,0.00,,,0.00,weatherlink.com 1.10,2013-02-15 19:14:00,
2013-02-15 14:29:00,52.3,31.0,30.02,North,4,1.0,5.0,44,0.00,,,0.00,weatherlink.com 1.10,2013-02-15 19:29:00,
2013-02-15 14:44:00,52.4,31.0,30.01,North,359,0.0,3.0,44,0.00,,,0.00,weatherlink.com 1.10,2013-02-15 19:44:00,
2013-02-15 14:59:00,53.0,31.0,30.01,NNW,347,3.0,7.0,44,0.00,,,0.00,weatherlink.com 1.10,2013-02-15 19:59:00,
2013-02-15 15:14:00,53.5,32.0,30.00,North,357,5.0,7.0,44,0.00,,,0.00,weatherlink.com 1.10,2013-02-15 20:14:00,
2013-02-15 15:29:00,53.2,33.0,30.00,NNE,13,2.0,5.0,46,0.00,,,0.00,weatherlink.com 1.10,2013-02-15 20:29:00,
2013-02-15 15:44:00,52.9,31.0,30.00,NNE,18,4.0,8.0,44,0.00,,,0.00,weatherlink.com 1.10,2013-02-15 20:44:00,
2013-02-15 15:59:00,51.9,32.0,30.00,NNE,32,4.0,7.0,47,0.00,,,0.00,weatherlink.com 1.10,2013-02-15 20:59:00,
2013-02-15 16:14:00,51.4,34.0,30.00,NNE,18,3.0,3.0,51,0.00,,,0.00,weatherlink.com 1.10,2013-02-15 21:14:00,
2013-02-15 16:29:00,50.8,34.0,30.00,North,9,4.0,5.0,54,0.00,,,0.00,weatherlink.com 1.10,2013-02-15 21:29:00,
2013-02-15 16:44:00,49.3,35.0,30.01,North,349,4.0,8.0,59,0.00,,,0.00,weatherlink.com 1.10,2013-02-15 21:44:00,
2013-02-15 16:59:00,48.1,35.0,30.01,NNE,25,5.0,7.0,62,0.00,,,0.00,weatherlink.com 1.10,2013-02-15 21:59:00,
2013-02-15 17:14:00,46.5,37.0,30.02,North,349,6.0,9.0,69,0.00,,,0.00,weatherlink.com 1.10,2013-02-15 22:14:00,
2013-02-15 17:29:00,45.4,37.0,30.02,NNW,345,5.0,8.0,73,0.00,,,0.00,weatherlink.com 1.10,2013-02-15 22:29:00,
2013-02-15 17:44:00,44.2,37.0,30.03,NNW,328,4.0,8.0,76,0.00,,,0.00,weatherlink.com 1.10,2013-02-15 22:44:00,
2013-02-15 17:59:00,43.7,38.0,30.04,NNW,341,3.0,6.0,79,0.00,,,0.00,weatherlink.com 1.10,2013-02-15 22:59:00,
2013-02-15 18:14:00,43.0,37.0,30.04,North,358,5.0,8.0,80,0.00,,,0.00,weatherlink.com 1.10,2013-02-15 23:14:00,
2013-02-15 18:29:00,42.1,37.0,30.05,NNW,347,6.0,7.0,83,0.00,,,0.00,weatherlink.com 1.10,2013-02-15 23:29:00,
2013-02-15 18:36:00,41.6,37.1,30.06,North,360,5.0,6.0,84,0.00,,,0.00,Wunderground v.1.15,2013-02-15 23:36:00,
2013-02-15 18:42:00,41.2,36.1,30.06,NNE,29,5.0,6.0,82,0.00,,,0.00,Wunderground v.1.15,2013-02-15 23:42:00,
2013-02-15 18:48:00,40.8,36.0,30.07,NNE,12,5.0,5.0,83,0.00,,,0.00,Wunderground v.1.15,2013-02-15 23:48:00,
2013-02-15 18:53:00,40.4,36.5,30.07,NNE,15,4.0,5.0,86,0.00,,,0.00,Wunderground v.1.15,2013-02-15 23:53:00,
2013-02-15 18:59:00,40.0,36.7,30.07,NE,46,4.0,6.0,88,0.00,,,0.00,Wunderground v.1.15,2013-02-15 23:59:00,
2013-02-15 19:04:00,39.7,36.7,30.07,NNE,29,3.0,4.0,89,0.00,,,0.00,Wunderground v.1.15,2013-02-16 00:04:00,
2013-02-15 19:10:00,39.5,36.5,30.07,North,352,2.0,2.0,89,0.00,,,0.00,Wunderground v.1.15,2013-02-16 00:10:00,
2013-02-15 19:15:00,39.3,36.3,30.07,NW,326,1.0,3.0,89,0.00,,,0.00,Wunderground v.1.15,2013-02-16 00:15:00,
2013-02-15 19:21:00,39.0,36.0,30.08,NW,318,2.0,2.0,89,0.00,,,0.00,Wunderground v.1.15,2013-02-16 00:21:00,
2013-02-15 19:26:00,38.8,35.8,30.08,ENE,68,2.0,4.0,89,0.00,,,0.00,Wunderground v.1.15,2013-02-16 00:26:00,
2013-02-15 19:32:00,38.6,35.6,30.08,NNE,13,3.0,5.0,89,0.00,,,0.00,Wunderground v.1.15,2013-02-16 00:32:00,
2013-02-15 19:38:00,38.4,35.7,30.08,NW,322,3.0,5.0,90,0.00,,,0.00,Wunderground v.1.15,2013-02-16 00:38:00,
2013-02-15 19:43:00,38.3,35.3,30.08,NNW,335,2.0,7.0,89,0.00,,,0.00,Wunderground v.1.15,2013-02-16 00:43:00,
2013-02-15 19:49:00,38.1,34.9,30.08,ENE,72,3.0,7.0,88,0.00,,,0.00,Wunderground v.1.15,2013-02-16 00:49:00,
2013-02-15 19:54:00,37.8,34.6,30.08,ENE,68,3.0,7.0,88,0.00,,,0.00,Wunderground v.1.15,2013-02-16 00:54:00,
2013-02-15 20:00:00,37.6,34.0,30.08,NNE,19,2.0,6.0,88,0.00,,,0.00,weatherlink.com 1.10,2013-02-16 01:00:00,
2013-02-15 20:05:00,37.4,34.5,30.08,ESE,103,2.0,4.0,89,0.00,,,0.00,Wunderground v.1.15,2013-02-16 01:05:00,
2013-02-15 20:11:00,37.2,34.3,30.08,NNE,25,2.0,4.0,89,0.00,,,0.00,Wunderground v.1.15,2013-02-16 01:11:00,
2013-02-15 20:16:00,37.1,34.2,30.08,NW,312,2.0,7.0,89,0.00,,,0.00,Wunderground v.1.15,2013-02-16 01:16:00,
2013-02-15 20:22:00,36.9,34.0,30.08,ESE,110,1.0,2.0,89,0.00,,,0.00,Wunderground v.1.15,2013-02-16 01:22:00,
2013-02-15 20:28:00,36.8,33.6,30.08,East,82,1.0,3.0,88,0.00,,,0.00,Wunderground v.1.15,2013-02-16 01:28:00,
2013-02-15 20:33:00,36.7,33.5,30.08,NNE,15,1.0,2.0,88,0.00,,,0.00,Wunderground v.1.15,2013-02-16 01:33:00,
2013-02-15 20:39:00,36.7,33.8,30.08,NNW,328,1.0,4.0,89,0.00,,,0.00,Wunderground v.1.15,2013-02-16 01:39:00,
2013-02-15 20:45:00,36.5,33.0,30.08,NNW,335,2.0,4.0,88,0.00,,,0.00,weatherlink.com 1.10,2013-02-16 01:45:00,
2013-02-15 20:50:00,36.4,33.2,30.09,NNW,345,3.0,7.0,88,0.00,,,0.00,Wunderground v.1.15,2013-02-16 01:50:00,
2013-02-15 20:56:00,36.3,33.1,30.08,NNW,334,3.0,7.0,88,0.00,,,0.00,Wunderground v.1.15,2013-02-16 01:56:00,
2013-02-15 21:01:00,36.1,32.9,30.08,North,356,2.0,3.0,88,0.00,,,0.00,Wunderground v.1.15,2013-02-16 02:01:00,
2013-02-15 21:07:00,36.0,33.1,30.08,NW,313,2.0,3.0,89,0.00,,,0.00,Wunderground v.1.15,2013-02-16 02:07:00,
2013-02-15 21:12:00,35.9,33.0,30.08,ENE,68,2.0,2.0,89,0.00,,,0.00,Wunderground v.1.15,2013-02-16 02:12:00,
2013-02-15 21:18:00,35.7,33.1,30.09,NE,46,2.0,4.0,90,0.00,,,0.00,Wunderground v.1.15,2013-02-16 02:18:00,
2013-02-15 21:24:00,35.5,32.9,30.09,NW,326,2.0,3.0,90,0.00,,,0.00,Wunderground v.1.15,2013-02-16 02:24:00,
2013-02-15 21:30:00,35.5,32.9,30.09,NNW,330,1.0,2.0,90,0.00,,,0.00,Wunderground v.1.15,2013-02-16 02:30:00,
2013-02-15 21:36:00,35.4,32.8,30.09,NNW,347,2.0,5.0,90,0.00,,,0.00,Wunderground v.1.15,2013-02-16 02:36:00,
2013-02-15 21:41:00,35.3,32.7,30.09,NNW,335,2.0,3.0,90,0.00,,,0.00,Wunderground v.1.15,2013-02-16 02:41:00,
2013-02-15 21:46:00,35.3,32.7,30.09,North,351,2.0,4.0,90,0.00,,,0.00,Wunderground v.1.15,2013-02-16 02:46:00,
2013-02-15 21:52:00,35.3,32.4,30.09,NNE,18,3.0,4.0,89,0.00,,,0.00,Wunderground v.1.15,2013-02-16 02:52:00,
2013-02-15 21:57:00,35.3,32.4,30.08,NE,50,2.0,4.0,89,0.00,,,0.00,Wunderground v.1.15,2013-02-16 02:57:00,
2013-02-15 22:03:00,35.3,32.4,30.08,NNW,332,2.0,3.0,89,0.00,,,0.00,Wunderground v.1.15,2013-02-16 03:03:00,
2013-02-15 22:16:00,35.1,32.0,30.09,North,353,2.0,4.0,88,0.00,,,0.00,weatherlink.com 1.10,2013-02-16 03:16:00,
2013-02-15 22:31:00,34.8,32.0,30.09,NNE,12,3.0,8.0,89,0.00,,,0.00,weatherlink.com 1.10,2013-02-16 03:31:00,
2013-02-15 22:46:00,34.3,31.0,30.09,North,351,5.0,7.0,89,0.00,,,0.00,weatherlink.com 1.10,2013-02-16 03:46:00,
2013-02-15 23:01:00,34.5,30.0,30.09,NNW,341,4.0,6.0,84,0.00,,,0.00,weatherlink.com 1.10,2013-02-16 04:01:00,
2013-02-15 23:16:00,34.2,29.0,30.09,NNE,12,2.0,4.0,81,0.00,,,0.00,weatherlink.com 1.10,2013-02-16 04:16:00,
2013-02-15 23:31:00,33.8,29.0,30.09,NNW,340,2.0,4.0,81,0.00,,,0.00,weatherlink.com 1.10,2013-02-16 04:31:00,
2013-02-15 23:46:00,33.4,28.0,30.08,NNW,335,2.0,4.0,81,0.00,,,0.00,weatherlink.com 1.10,2013-02-16 04:46:00,